User: anonymous   Login
Location: Fort Hays State University
(38.8712°N, 99.3432°W)
Time: 07:21:45
(UTC-05:00)
Language:

ALOS - Orbit

View from above orbital plane
View from above orbital plane
View from above satellite
View from above satellite

Ground track
Ground track

The orbit data is extracted from the following two-line orbital elements,

1 28931U 06002A   16125.55650798  .00000470  00000-0  10221-3 0  9991
2 28931  97.8887 166.3158 0002070 117.0261 243.1152 14.62177049547745
Epoch (UTC): 04 May 2016 13:21:22
Eccentricity: 0.0002070
inclination: 97.8887°
perigee height: 684 km
apogee height: 687 km
right ascension of ascending node: 166.3158°
argument of perigee: 117.0261°
revolutions per day: 14.62177049
mean anomaly at epoch: 243.1152°
orbit number at epoch: 54774

The dashed part of the orbit path shows where the satellite is in the earth's shadow,  

DLR